Volver al catálogo

STARLINK-31490

ActivoComunicacionesVLEO
NORAD 59222·PAYLOAD·🇺🇸 United States

Lanzado Mar 11, 2024 desde Vandenberg Space Force Base

Loading…

Próximos Pases (próximas 24 horas)

TLE

ActualizadoSource: CelesTrak SupGP

Época: Sep 15, 2026, 02:33 UTC

1 59222C 24046X   26258.10673611  .00069948  00000+0  20669-2 0  2582
2 59222  53.1601 354.7975 0001242  92.8438 144.0920 15.34351316    14

Sigue STARLINK-31490 en tiempo real con AllMySat

Download on the App Store